This demonstration page uses our WeatherBlox Daily Observations layout. Learn more.

Left ArrowRight Arrow

44.89941, -97.11507

Hourly Observations for May 31, 2021

Temp ( °F °C ) Dew Point ( °F °C ) Humidity (%) Winds ( mph kmh ) Pressure ( in mb ) Visibility ( mi km ) Precip ( " mm )
12:53 am 00:53 Clear 55 12.8 45 7.2 69 69 SW 9 15 30.11 1020 10 16 0.00 0.00
1:53 am 01:53 Clear 54 12.2 47 8.3 77 77 SSW 8 13 30.11 1020 10 16 0.00 0.00
2:53 am 02:53 Clear 53 11.7 45 7.2 74 74 SW 7 11 30.11 1020 10 16 0.00 0.00
3:53 am 03:53 Clear 50 10 44 6.7 80 80 Calm 30.12 1020 10 16 0.00 0.00
4:53 am 04:53 Clear 49 9.4 44 6.7 83 83 Calm 30.13 1020 10 16 0.00 0.00
5:53 am 05:53 Sunny 47 8.3 44 6.7 90 90 Calm 30.15 1021 10 16 0.00 0.00
6:53 am 06:53 Sunny 48 8.9 45 7.2 89 89 N 7 11 30.17 1022 10 16 0.00 0.00
7:53 am 07:53 Sunny 53 11.7 45 7.2 74 74 N 10 17 30.19 1022 10 16 0.00 0.00
8:53 am 08:53 Sunny 57 13.9 46 7.8 67 67 N 7 11 30.20 1023 10 16 0.00 0.00
9:53 am 09:53 Sunny 61 16.1 46 7.8 58 58 N 9 15 30.20 1023 10 16 0.00 0.00
10:53 am 10:53 Sunny 64 17.8 46 7.8 52 52 NW 10 17 30.19 1022 10 16 0.00 0.00
11:53 am 11:53 Sunny 66 18.9 44 6.7 45 45 NW 9 15 30.19 1022 10 16 0.00 0.00
12:53 pm 12:53 Sunny 67 19.4 42 5.6 41 41 WNW 10 17 30.19 1022 10 16 0.00 0.00
1:53 pm 13:53 Sunny 68 20 41 5 38 38 NW 13 20 30.18 1022 10 16 0.00 0.00
2:53 pm 14:53 Sunny 69 20.6 40 4.4 35 35 NW 13 20 30.17 1022 10 16 0.00 0.00
3:53 pm 15:53 Sunny 70 21.1 42 5.6 37 37 NW 10 17 30.17 1022 10 16 0.00 0.00
4:53 pm 16:53 Sunny 71 21.7 43 6.1 36 36 NW 13 20 30.16 1022 10 16 0.00 0.00
5:53 pm 17:53 Sunny 70 21.1 42 5.6 37 37 NNW 6 9 30.16 1021 10 16 0.00 0.00
6:53 pm 18:53 Sunny 69 20.6 43 6.1 39 39 N 8 13 30.15 1021 10 16 0.00 0.00
7:53 pm 19:53 Sunny 66 18.9 44 6.7 45 45 N 8 13 30.15 1021 10 16 0.00 0.00
8:53 pm 20:53 Sunny 61 16.1 43 6.1 52 52 NNE 3 6 30.16 1021 10 16 0.00 0.00
9:53 pm 21:53 Clear 57 13.9 43 6.1 60 60 Calm 30.18 1022 10 16 0.00 0.00
10:53 pm 22:53 Clear 57 13.9 41 5 55 55 Calm 30.17 1022 10 16 0.00 0.00
11:53 pm 23:53 Clear 52 11.1 44 6.7 75 75 SSE 3 6 30.18 1022 10 16 0.00 0.00

Powered by AerisWeather